Weather History for KICT - March, 2013

Change the Weather History Date:

Thursday, March 21, 2013

  Actual Average Record
Temperature  
Mean Temperature 43 °F 48 °F  
Max Temperature 50 °F 60 °F 92 °F (1916)
Min Temperature 35 °F 37 °F 10 °F (1974)
Degree Days  
Heating Degree Days 22 17  
Month to date heating degree days 466 422  
Since 1 July heating degree days 3737 4062  
Cooling Degree Days 0 0  
Month to date cooling degree days 0 0  
Year to date cooling degree days 0 0  
Moisture  
Dew Point 22 °F    
Average Humidity 56    
Maximum Humidity 82    
Minimum Humidity 29    
Precipitation  
Precipitation 0.00 in 0.09 in 1.69 in (1944)
Month to date precipitation 0.83 1.72  
Year to date precipitation 3.85 3.73  
Snow  
Snow 0.00 in 0.10 in 4.00 in (1932)
Month to date snowfall 0.0 1.7  
Since 1 July snowfall 24.5 14.1  
Snow Depth 0.00 in    
Sea Level Pressure  
Sea Level Pressure 29.85 in    
Wind  
Wind Speed 19 mph (ESE)    
Max Wind Speed 29 mph    
Max Gust Speed 31 mph    
Visibility 10 miles    
Events      
T = Trace of Precipitation, MM = Missing Value Source: NWS Daily Summary

Daily Weather History Graph

Daily Weather History Graph

Search for Another Location

Airport or City:

Trip Planner

Search our weather history database for the weather conditions in past years. The results will help you decide how hot, cold, wet, or windy it might be!

Date:

Astronomy

Mar. 21, 2013 Rise Set
Actual Time 7:31 AM CDT 7:42 PM CDT
Civil Twilight 7:05 AM CDT 8:08 PM CDT
Nautical Twilight 6:34 AM CDT 8:39 PM CDT
Astronomical Twilight 6:03 AM CDT 9:10 PM CDT
Moon 2:19 PM CDT (3/21) 3:48 AM CDT (3/21)
Length of Visible Light 13h 03m
Length of Day
12h 11m
Waxing Gibbous, 69% of the Moon is Illuminated
Mar 21
Waxing Gibbous
Mar 27
Full
Apr 2
Last Quarter
Apr 10
New
Apr 18
First Quarter

Hourly Weather History & Observations

Time (CDT) Temp. Windchill Dew Point Humidity Pressure Visibility Wind Dir Wind Speed Gust Speed Precip Events Conditions
12:53 AM 39.0 °F 31.4 °F 18.0 °F 43% 30.02 in 10.0 mi ESE 12.7 mph - N/A   Mostly Cloudy
1:53 AM 37.9 °F 27.3 °F 18.0 °F 45% 29.99 in 10.0 mi East 21.9 mph 63.3 mph N/A   Mostly Cloudy
2:53 AM 37.9 °F 28.9 °F 19.0 °F 47% 29.98 in 10.0 mi ESE 16.1 mph - N/A   Overcast
3:53 AM 37.0 °F 27.7 °F 18.0 °F 46% 29.96 in 10.0 mi ESE 16.1 mph 21.9 mph N/A   Overcast
4:53 AM 36.0 °F 26.0 °F 19.0 °F 50% 29.92 in 10.0 mi ESE 17.3 mph 23.0 mph N/A   Overcast
5:53 AM 36.0 °F 26.0 °F 18.0 °F 48% 29.91 in 10.0 mi East 17.3 mph 23.0 mph N/A   Overcast
6:53 AM 36.0 °F 25.6 °F 18.0 °F 48% 29.90 in 10.0 mi ESE 18.4 mph 27.6 mph N/A   Overcast
7:53 AM 37.0 °F 27.0 °F 17.1 °F 44% 29.88 in 10.0 mi ESE 18.4 mph 29.9 mph N/A   Mostly Cloudy
8:53 AM 37.9 °F 27.3 °F 17.1 °F 43% 29.87 in 10.0 mi ESE 21.9 mph 33.4 mph N/A   Mostly Cloudy
9:53 AM 41.0 °F 30.5 °F 17.1 °F 38% 29.85 in 10.0 mi ESE 26.5 mph 32.2 mph N/A   Mostly Cloudy
10:53 AM 45.0 °F 36.0 °F 16.0 °F 31% 29.84 in 10.0 mi ESE 25.3 mph 33.4 mph N/A   Mostly Cloudy
11:53 AM 48.0 °F - 18.0 °F 30% 29.82 in 10.0 mi SE 23.0 mph 32.2 mph N/A   Scattered Clouds
12:53 PM 48.9 °F - 21.0 °F 33% 29.79 in 10.0 mi SE 21.9 mph 32.2 mph N/A   Scattered Clouds
1:53 PM 48.9 °F - 21.0 °F 33% 29.77 in 10.0 mi SE 26.5 mph 32.2 mph N/A   Scattered Clouds
2:53 PM 48.0 °F - 21.9 °F 36% 29.74 in 10.0 mi SE 19.6 mph 33.4 mph N/A   Scattered Clouds
3:53 PM 46.9 °F - 23.0 °F 39% 29.74 in 10.0 mi ESE 19.6 mph - N/A   Scattered Clouds
4:53 PM 44.1 °F 35.9 °F 21.9 °F 42% 29.75 in 10.0 mi ESE 19.6 mph 25.3 mph N/A   Overcast
5:53 PM 42.1 °F 33.1 °F 24.1 °F 49% 29.76 in 10.0 mi East 20.7 mph 26.5 mph N/A   Overcast
6:53 PM 39.9 °F 31.1 °F 25.0 °F 55% 29.78 in 10.0 mi East 17.3 mph 23.0 mph N/A   Overcast
7:53 PM 37.0 °F 27.7 °F 28.0 °F 70% 29.80 in 10.0 mi East 16.1 mph - N/A   Overcast
8:33 PM 37.4 °F 27.2 °F 28.4 °F 70% 29.78 in 10.0 mi East 19.6 mph 24.2 mph N/A   Overcast
8:53 PM 36.0 °F 26.7 °F 28.9 °F 76% 29.82 in 10.0 mi East 15.0 mph - N/A   Mostly Cloudy
9:32 PM 35.6 °F 25.5 °F 30.2 °F 81% 29.79 in 10.0 mi East 17.3 mph - N/A   Overcast
9:53 PM 35.1 °F 24.8 °F 30.0 °F 82% 29.81 in 10.0 mi East 17.3 mph - N/A   Overcast
10:53 PM 35.1 °F 25.9 °F 30.0 °F 82% 29.84 in 10.0 mi East 13.8 mph 23.0 mph N/A   Overcast
11:53 PM 35.1 °F 26.4 °F 30.0 °F 82% 29.85 in 9.0 mi East 12.7 mph - N/A   Overcast